Weather in Port-de-Paix

Haiti     19°56′23″N   72°49′49″W
temp.,
°C
wind,
m/s
gust,
m/s
humid.,
%
clouds,
%
prec.,
mm/h
press.,
hPa
HPBL,
m
16 may, sun
sun1623:00+27e78781 0.0 1015872
02:00+26e66795 0.1 1014806
05:00+26e557916 0.0 1014710
08:00+26e337713 0.1 1015623
11:00+26ene658421 0.0 1016432
14:00+26ne55800 0.3 1015424
17:00+26ne54809 0.2 1014533
20:00+27ene777724 0.9 1015896
17 may, mon
mon1723:00+27e78768 0.3 1016852
02:00+26e677964 0.3 1014769
05:00+26ese567619 0.0 1013736
08:00+26e557624 0.1 1015744
11:00+26ene547935 0.1 1015380
14:00+26ne227491 1.6 1014313
17:00+27nnw3372100 0.8 1014433
20:00+27e337296 3.8 1015428
18 may, tue
tue1823:00+27e567115 0.4 1016557
02:00+26ese567996 2.0 1015389
05:00+26ese347698 4.2 1014302
08:00+27ssw2269100 4.9 1015233
11:00+27nnw3270100 0.0 1016259
14:00+27wnw2371100 1.6 1015371
17:00+27nw347398 2.6 1013331
20:00+24sw2283100 9.8 1015171
19 may, wed
wed1923:00+25wnw228077 0.4 1017266
02:00+25ese2277100 1.1 1015271
05:00+26ese567581 0.0 1014460
08:00+26ese4473100 0.3 1015398
11:00+26ne327294 0.3 1016303
14:00+26ne5577100 4.3 1015313
17:00+26ene667238 1.7 1014859
20:00+27ene1096775 1.7 10161191
20 may, thu
thu2023:00+26e10117361 0.0 10161003
02:00+26ese9107786 0.0 1014766
05:00+25e897697 0.0 1013594
08:00+25e7878100 0.0 1015600
11:00+25e667999 0.0 1015484
14:00+25ene778194 0.3 1015450
17:00+26ene877786 1.1 1014816
20:00+27e101076100 2.1 10151018